This demonstration page uses our WeatherBlox Daily Observations layout. Learn more.

Left ArrowRight Arrow

36.19886, -115.1175

Hourly Observations for August 23, 2015

Temp ( °F °C ) Dew Point ( °F °C ) Humidity (%) Winds ( mph kmh ) Pressure ( in mb ) Visibility ( mi km ) Precip ( " mm )
12:53 am 00:53 Clear 87 30.6 38 3.3 18 18 NE 3 6 29.84 1011 10 16 0.00 0.00
1:53 am 01:53 Clear 86 30 42 5.6 21 21 Calm 29.85 1011 10 16 0.00 0.00
2:53 am 02:53 Clear 82 27.8 42 5.6 24 24 NNW 3 6 29.85 1011 10 16 0.00 0.00
3:53 am 03:53 Clear 81 27.2 43 6.1 26 26 WNW 6 9 29.86 1011 10 16 0.00 0.00
4:53 am 04:53 Clear 80 26.7 43 6.1 27 27 Calm 29.87 1012 10 16 0.00 0.00
5:53 am 05:53 Clear 81 27.2 44 6.7 27 27 NW 3 6 29.88 1012 10 16 0.00 0.00
6:53 am 06:53 Sunny 81 27.2 45 7.2 28 28 NW 6 9 29.91 1013 10 16 0.00 0.00
7:53 am 07:53 Sunny 85 29.4 50 10 30 30 NNE 3 6 29.93 1014 10 16 0.00 0.00
8:53 am 08:53 Sunny 88 31.1 48 8.9 25 25 ESE 7 11 29.93 1014 10 16 0.00 0.00
9:53 am 09:53 Sunny 91 32.8 47 8.3 22 22 SE 7 11 29.94 1014 10 16 0.00 0.00
10:53 am 10:53 Sunny 95 35 46 7.8 19 19 SSE 8 13 29.94 1014 10 16 0.00 0.00
11:53 am 11:53 Sunny 97 36.1 44 6.7 16 16 VRB 7 11 29.93 1013 10 16 0.00 0.00
12:53 pm 12:53 Sunny 101 38.3 43 6.1 14 14 SE 12 19 29.90 1012 10 16 0.00 0.00
1:53 pm 13:53 Sunny 103 39.4 41 5 12 12 SE 15 24 29.87 1012 10 16 0.00 0.00
2:53 pm 14:53 Sunny 105 40.6 32 0 8 8 S 15 24 29.84 1010 10 16 0.00 0.00
3:53 pm 15:53 Sunny 105 40.6 30 -1.1 7 7 SW 9 15 29.82 1010 10 16 0.00 0.00
4:53 pm 16:53 Sunny 104 40 29 -1.7 7 7 S 9 15 29.81 1010 10 16 0.00 0.00
7:53 pm 19:53 Clear 99 37.2 29 -1.7 8 8 W 8 13 29.82 1010 10 16 0.00 0.00
8:53 pm 20:53 Clear 96 35.6 30 -1.1 10 10 ESE 7 11 29.85 1011 10 16 0.00 0.00
9:53 pm 21:53 Clear 95 35 31 -0.6 10 10 SW 5 7 29.86 1011 10 16 0.00 0.00
10:53 pm 22:53 Clear 91 32.8 33 0.6 13 13 NW 8 13 29.87 1012 10 16 0.00 0.00
11:53 pm 23:53 Clear 90 32.2 32 0 13 13 W 5 7 29.88 1012 10 16 0.00 0.00

Powered by AerisWeather